GW5344 Weather Reports


Display with metric or nautical units.
time (UTC)temp
F
wind
direction
speed
MPH
gust
MPH
rain 1hr
in
rain 24hr
in
rain mn
in
humidity
%
barometer
mb
20260508002008 54 311 1.0 6.0 0.00 0.00 0.00 44 1011.2
20260508001519 54 316 2.0 6.0 0.00 0.00 0.00 43 1011.0
20260508001009 54 22 1.0 17.0 0.00 0.00 0.00 43 1010.9
20260508000510 55 295 5.0 17.0 0.00 0.00 0.00 42 1010.8
20260508000021 55 25 4.0 11.0 0.00 0.00 0.00 42 1010.7
20260507235507 55 326 6.0 12.0 0.00 0.00 0.00 42 1010.7
20260507235008 55 347 4.0 12.0 0.00 0.00 0.00 42 1010.6
20260507234525 55 25 2.0 9.0 0.00 0.00 0.00 42 1010.6
20260507234006 56 355 3.0 11.0 0.00 0.00 0.00 41 1010.6
20260507233508 56 330 4.0 16.0 0.00 0.00 0.00 41 1010.5
20260507233036 56 259 6.0 16.0 0.00 0.00 0.00 40 1010.6
20260507232504 56 303 2.0 11.0 0.00 0.00 0.00 41 1010.6
20260507232007 56 24 2.0 9.0 0.00 0.00 0.00 41 1010.4
20260507231526 56 328 2.0 7.0 0.00 0.00 0.00 40 1010.4
20260507231012 56 311 1.0 10.0 0.00 0.00 0.00 41 1010.3
20260507230510 56 357 3.0 10.0 0.00 0.00 0.00 40 1010.3
20260507230018 57 330 1.0 9.0 0.00 0.00 0.00 40 1010.4
20260507225510 57 325 2.0 9.0 0.00 0.00 0.00 39 1010.3
20260507225009 57 349 2.0 12.0 0.00 0.00 0.00 39 1010.2
20260507224522 58 304 5.0 13.0 0.00 0.00 0.00 39 1010.2
20260507224013 57 314 5.0 13.0 0.00 0.00 0.00 38 1010.0
20260507223510 58 218 3.0 5.0 0.00 0.00 0.00 38 1010.1
20260507223027 58 25 1.0 8.0 0.00 0.00 0.00 39 1010.0
20260507222509 58 208 2.0 8.0 0.00 0.00 0.00 38 1010.0
20260507222008 58 306 2.0 14.0 0.00 0.00 0.00 38 1009.9
20260507221517 59 275 6.0 14.0 0.00 0.00 0.00 36 1009.9
20260507221010 59 60 2.0 7.0 0.00 0.00 0.00 36 1009.8
20260507220508 58 104 2.0 12.0 0.00 0.00 0.00 35 1009.8
20260507220017 60 316 1.0 12.0 0.00 0.00 0.00 37 1009.7
20260507215505 60 169 3.0 11.0 0.00 0.00 0.00 37 1009.6
20260507215007 59 256 2.0 10.0 0.00 0.00 0.00 36 1009.6
20260507214527 60 241 2.0 12.0 0.00 0.00 0.00 35 1009.7
20260507214011 60 284 4.0 13.0 0.00 0.00 0.00 36 1009.6
20260507213513 59 85 2.0 13.0 0.00 0.00 0.00 36 1009.5
20260507213025 58 280 3.0 10.0 0.00 0.00 0.00 38 1009.4
20260507212506 58 330 3.0 12.0 0.00 0.00 0.00 37 1009.4
20260507212008 59 4 4.0 12.0 0.00 0.00 0.00 36 1009.5
20260507211528 59 251 2.0 12.0 0.00 0.00 0.00 35 1009.6
20260507211007 60 282 1.0 10.0 0.00 0.00 0.00 35 1009.5
20260507210509 59 245 2.0 10.0 0.00 0.00 0.00 36 1009.4
20260507210031 60 192 1.0 10.0 0.00 0.00 0.00 35 1009.4
20260507205506 60 295 2.0 10.0 0.00 0.00 0.00 36 1009.3
20260507205008 60 343 3.0 9.0 0.00 0.00 0.00 35 1009.2
20260507204519 60 296 0.0 17.0 0.00 0.00 0.00 36 1009.4
20260507204006 60 271 3.0 17.0 0.00 0.00 0.00 33 1009.4
20260507203510 62 124 1.0 8.0 0.00 0.00 0.00 36 1009.3
20260507203024 61 315 1.0 8.0 0.00 0.00 0.00 35 1009.3
20260507202508 60 257 2.0 11.0 0.00 0.00 0.00 38 1009.3
20260507202009 60 347 4.0 11.0 0.00 0.00 0.00 34 1009.4
20260507201525 60 319 2.0 11.0 0.00 0.00 0.00 35 1009.4
20260507201007 61 33 3.0 11.0 0.00 0.00 0.00 38 1009.3
20260507200509 61 254 3.0 9.0 0.00 0.00 0.00 35 1009.3
20260507200031 61 203 4.0 12.0 0.00 0.00 0.00 33 1009.5
20260507195512 61 245 3.0 12.0 0.00 0.00 0.00 35 1009.5
20260507195008 61 247 2.0 10.0 0.00 0.00 0.00 35 1009.5
20260507194519 61 270 2.0 10.0 0.00 0.00 0.00 37 1009.5
20260507194007 60 212 2.0 9.0 0.00 0.00 0.00 38 1009.5
20260507193509 60 284 2.0 9.0 0.00 0.00 0.00 38 1009.6
20260507193025 59 219 3.0 12.0 0.00 0.00 0.00 37 1009.6
20260507192510 60 83 4.0 12.0 0.00 0.00 0.00 36 1009.7
20260507192011 60 309 1.0 8.0 0.00 0.00 0.00 39 1009.7
20260507125510 51 226 1.0 4.0 0.00 0.02 0.00 60 1013.0
20260507125012 51 281 1.0 4.0 0.00 0.02 0.00 59 1013.0
20260507124528 51 259 1.0 2.0 0.00 0.02 0.00 61 1013.1
20260507124008 50 292 1.0 2.0 0.00 0.02 0.00 63 1013.1
20260507123511 50 293 0.0 2.0 0.00 0.02 0.00 66 1013.1
20260507123027 49 22 0.0 2.0 0.00 0.02 0.00 67 1013.1
20260507122503 49 330 0.0 2.0 0.00 0.02 0.00 70 1013.2
20260507122005 49 56 0.0 2.0 0.00 0.02 0.00 69 1013.2
20260507121512 49 237 0.0 2.0 0.00 0.02 0.00 70 1013.2
20260507121008 49 162 0.0 2.0 0.00 0.03 0.00 72 1013.2
20260507120509 48 159 0.0 2.0 0.00 0.04 0.00 73 1013.2
20260507120021 48 153 0.0 0.0 0.00 0.05 0.00 75 1013.2
20260507115506 47 131 0.0 0.0 0.00 0.05 0.00 76 1013.2
20260507115013 46 178 0.0 0.0 0.00 0.06 0.00 80 1013.1
20260507114521 46 186 0.0 0.0 0.00 0.07 0.00 81 1013.2
20260507114018 44 203 0.0 0.0 0.00 0.07 0.00 83 1013.2
20260507113509 43 203 0.0 0.0 0.00 0.07 0.00 83 1013.0
20260507113028 43 203 0.0 0.0 0.00 0.07 0.00 84 1013.0
20260507112510 43 203 0.0 0.0 0.00 0.07 0.00 83 1012.9
20260507112011 43 203 0.0 0.0 0.00 0.07 0.00 84 1012.7
20260507111527 42 203 0.0 0.0 0.00 0.07 0.00 85 1012.7
20260507111009 42 203 0.0 0.0 0.00 0.07 0.00 85 1012.7
20260507110504 42 204 0.0 0.0 0.00 0.07 0.00 85 1012.8
20260507110016 41 204 0.0 0.0 0.00 0.07 0.00 86 1012.8
20260507105506 41 204 0.0 0.0 0.00 0.08 0.00 86 1012.8
20260507105010 41 204 0.0 0.0 0.00 0.08 0.00 86 1012.7
20260507104520 41 204 0.0 0.0 0.00 0.09 0.00 86 1012.5
20260507104011 41 204 0.0 0.0 0.00 0.10 0.00 85 1012.4
20260507103505 40 204 0.0 0.0 0.00 0.11 0.00 85 1012.4
20260507103029 40 204 0.0 0.0 0.00 0.12 0.00 85 1012.3
20260507102509 40 204 0.0 0.0 0.00 0.13 0.00 84 1012.3
20260507102011 40 176 0.0 0.0 0.00 0.14 0.00 83 1012.3
20260507101527 40 176 0.0 0.0 0.00 0.15 0.00 82 1012.3
20260507101007 41 176 0.0 0.0 0.00 0.16 0.00 83 1012.4
20260507100510 40 176 0.0 0.0 0.00 0.17 0.00 83 1012.3
20260507100012 40 176 0.0 0.0 0.00 0.18 0.00 82 1012.2
20260507095508 41 176 0.0 0.0 0.00 0.20 0.00 82 1012.3
20260507095007 41 176 0.0 0.0 0.00 0.21 0.00 82 1012.3
20260507094517 41 176 0.0 0.0 0.00 0.22 0.00 82 1012.3
20260507094005 41 176 0.0 0.0 0.00 0.23 0.00 82 1012.2
20260507093507 41 176 0.0 2.0 0.00 0.24 0.00 82 1012.3
20260507093025 40 176 0.0 2.0 0.00 0.24 0.00 83 1012.2
20260507092513 40 176 0.0 2.0 0.00 0.25 0.00 83 1012.3
20260507092008 40 243 0.0 0.0 0.00 0.26 0.00 83 1012.3
20260507091527 40 243 0.0 0.0 0.00 0.26 0.00 81 1012.4
20260507091011 40 243 0.0 0.0 0.00 0.27 0.00 81 1012.5
20260507090510 42 243 0.0 0.0 0.00 0.27 0.00 80 1012.4
20260507090026 42 243 0.0 0.0 0.00 0.28 0.00 80 1012.4
20260507085509 43 243 0.0 0.0 0.00 0.29 0.00 80 1012.4
20260507085010 42 243 0.0 0.0 0.00 0.30 0.00 78 1012.4
20260507084517 42 243 0.0 0.0 0.00 0.32 0.00 76 1012.3
20260507084007 43 243 0.0 0.0 0.00 0.32 0.00 75 1012.4
20260507083507 43 243 0.0 1.0 0.00 0.33 0.00 75 1012.3
20260507083018 43 243 0.0 1.0 0.00 0.34 0.00 75 1012.4
20260507082505 43 243 1.0 2.0 0.00 0.35 0.00 75 1012.3
20260507082008 43 228 0.0 2.0 0.00 0.36 0.00 75 1012.3
20260507081524 43 228 0.0 2.0 0.00 0.37 0.00 75 1012.3
20260507081009 44 228 0.0 2.0 0.00 0.37 0.00 75 1012.3
20260507080508 43 228 0.0 2.0 0.00 0.38 0.00 74 1012.4
20260507080034 44 228 0.0 2.0 0.00 0.38 0.00 73 1012.4
20260507075507 44 228 0.0 2.0 0.00 0.38 0.00 73 1012.4
20260507075011 44 228 0.0 2.0 0.00 0.38 0.00 72 1012.4
20260507074530 45 317 0.0 2.0 0.00 0.38 0.00 70 1012.4
20260507074014 45 317 0.0 3.0 0.00 0.38 0.00 70 1012.4
20260507073512 45 320 2.0 3.0 0.00 0.38 0.00 69 1012.4
20260507073018 45 321 2.0 3.0 0.00 0.38 0.00 69 1012.5
20260507072507 45 322 2.0 2.0 0.00 0.38 0.00 69 1012.5
20260507072012 45 343 0.0 0.0 0.00 0.38 0.00 68 1012.6
20260507071553 45 343 0.0 0.0 0.00 0.38 0.00 68 1012.6
20260507071007 45 352 0.0 0.0 0.00 0.38 0.00 66 1012.6
20260507070509 46 20 0.0 0.0 0.00 0.38 0.00 66 1012.6
20260507070026 46 20 0.0 0.0 0.00 0.38 0.00 65 1012.6
20260507065507 46 20 0.0 0.0 0.00 0.38 0.00 64 1012.7
20260507065007 46 20 0.0 0.0 0.00 0.38 0.00 65 1012.7
20260507064527 46 9 0.0 0.0 0.00 0.39 0.00 65 1012.7
20260507064010 46 9 0.0 0.0 0.00 0.39 0.00 66 1012.7
20260507063510 46 10 0.0 2.0 0.00 0.39 0.00 65 1012.7
20260507063032 46 16 0.0 2.0 0.00 0.40 0.00 66 1012.7
20260507062514 46 66 0.0 3.0 0.00 0.41 0.00 65 1012.7
20260507062007 46 80 0.0 3.0 0.00 0.41 0.00 65 1012.7
20260507061519 47 94 0.0 2.0 0.00 0.41 0.00 65 1012.7
20260507061010 47 106 0.0 3.0 0.00 0.42 0.00 65 1012.8
20260507060507 47 82 1.0 3.0 0.00 0.42 0.00 65 1012.7
20260507060022 47 72 0.0 2.0 0.00 0.43 0.00 67 1012.8
20260507055507 47 328 0.0 2.0 0.00 0.43 0.00 67 1012.9
20260507055012 47 343 0.0 2.0 0.00 0.43 0.00 67 1012.9
20260507054528 47 347 0.0 2.0 0.00 0.43 0.00 66 1013.0
20260507054012 47 347 0.0 4.0 0.00 0.44 0.00 65 1013.0
20260507053507 47 343 0.0 4.0 0.00 0.44 0.00 65 1013.2
20260507053032 48 315 1.0 4.0 0.00 0.44 0.00 64 1013.3
20260507052510 48 338 1.0 3.0 0.00 0.44 0.00 63 1013.4
20260507052010 48 330 0.0 5.0 0.00 0.44 0.00 63 1013.4
20260507051539 48 8 1.0 5.0 0.00 0.45 0.00 62 1013.5
20260507051009 48 318 1.0 5.0 0.00 0.45 0.00 62 1013.4
20260507050507 48 326 1.0 3.0 0.00 0.45 0.00 62 1013.4
20260507050022 48 324 2.0 3.0 0.00 0.46 0.00 61 1013.4
20260507045510 48 330 2.0 3.0 0.00 0.46 0.00 61 1013.4
20260507045010 48 322 2.0 3.0 0.00 0.46 0.00 60 1013.3
20260507044527 48 348 0.0 2.0 0.00 0.47 0.00 61 1013.3
20260507044010 48 18 1.0 5.0 0.00 0.47 0.00 61 1013.3
20260507043508 48 31 0.0 5.0 0.00 0.47 0.00 61 1013.3
20260507043028 48 347 1.0 4.0 0.00 0.47 0.00 62 1013.3
20260507042509 48 26 0.0 2.0 0.00 0.47 0.00 61 1013.4
20260507042008 48 6 1.0 2.0 0.00 0.47 0.00 60 1013.4
20260507041529 48 358 0.0 2.0 0.00 0.47 0.00 62 1013.3
20260507041010 48 4 0.0 2.0 0.00 0.47 0.00 61 1013.3
20260507040512 49 338 1.0 2.0 0.00 0.47 0.00 61 1013.3
20260507040030 49 330 0.0 2.0 0.00 0.47 0.00 60 1013.3
20260507035509 49 348 0.0 2.0 0.00 0.47 0.47 60 1013.3
20260507035010 49 40 0.0 2.0 0.00 0.47 0.47 60 1013.1
20260507034532 49 27 1.0 2.0 0.00 0.47 0.47 59 1013.1
20260507034008 49 324 0.0 3.0 0.00 0.47 0.47 60 1013.2
20260507033507 49 324 0.0 4.0 0.00 0.47 0.47 60 1013.3
20260507033015 49 321 2.0 4.0 0.00 0.47 0.47 59 1013.2
20260507032503 49 18 0.0 3.0 0.00 0.47 0.47 61 1013.1
20260507032010 49 30 1.0 5.0 0.00 0.47 0.47 60 1013.1
20260507031512 49 314 2.0 5.0 0.00 0.47 0.47 60 1013.1
20260507031004 49 28 0.0 2.0 0.00 0.47 0.47 61 1012.9
20260507030506 49 44 0.0 3.0 0.00 0.47 0.47 60 1012.9
20260507030011 50 46 0.0 3.0 0.00 0.47 0.47 59 1012.8
20260507025505 50 55 1.0 3.0 0.00 0.47 0.47 59 1012.9
20260507025005 50 39 0.0 3.0 0.00 0.47 0.47 60 1012.9
20260507024510 50 39 1.0 4.0 0.00 0.47 0.47 60 1013.0
20260507024007 50 43 2.0 4.0 0.00 0.47 0.47 60 1012.9
20260507023503 50 353 0.0 3.0 0.00 0.47 0.47 60 1012.7
20260507023023 50 325 0.0 3.0 0.00 0.47 0.47 59 1012.8
20260507022505 50 357 0.0 2.0 0.00 0.47 0.47 59 1012.9
20260507022006 50 18 0.0 2.0 0.00 0.47 0.47 60 1012.7
20260507021508 50 17 0.0 2.0 0.00 0.47 0.47 60 1012.5
20260507021004 50 52 0.0 3.0 0.00 0.47 0.47 59 1012.5
20260507020505 50 86 0.0 4.0 0.00 0.47 0.47 59 1012.4
20260507020018 50 73 1.0 4.0 0.00 0.47 0.47 58 1012.3
20260507015506 50 41 1.0 4.0 0.00 0.47 0.47 58 1012.3
20260507015008 51 60 2.0 4.0 0.00 0.47 0.47 58 1012.2
20260507014513 51 27 2.0 6.0 0.00 0.47 0.47 58 1012.2
20260507014006 51 48 2.0 6.0 0.00 0.47 0.47 60 1012.0
20260507013505 51 81 1.0 3.0 0.00 0.47 0.47 59 1012.0
20260507013013 51 42 0.0 3.0 0.00 0.47 0.47 59 1011.9
20260507012509 51 45 0.0 3.0 0.00 0.47 0.47 60 1011.9
20260507012007 51 42 0.0 2.0 0.00 0.47 0.47 60 1011.9
20260507011517 51 18 0.0 3.0 0.00 0.47 0.47 60 1011.8
20260507011004 51 303 1.0 4.0 0.00 0.47 0.47 59 1011.7
20260507010503 51 23 0.0 5.0 0.00 0.47 0.47 61 1011.8
20260507010021 51 8 1.0 5.0 0.00 0.47 0.47 60 1011.8
20260507005508 51 63 1.0 3.0 0.00 0.47 0.47 61 1011.9
20260507005006 51 29 0.0 3.0 0.00 0.47 0.47 61 1012.0
20260507004515 51 359 0.0 3.0 0.00 0.47 0.47 61 1012.1
20260507004007 52 343 1.0 3.0 0.00 0.47 0.47 59 1012.2
20260507003506 52 2 1.0 5.0 0.00 0.47 0.47 59 1012.3
20260507003004 52 13 2.0 4.0 0.00 0.47 0.47 59 1012.2
20260507002501 52 12 2.0 4.0 0.00 0.47 0.47 60 1012.1